owner,sensor,date,latitude,longitude,vertical_datum,wind_speed,wind_to_direction,wind_speed_of_gust,qcFlag 
WAVCIS,ioos:station:WAVCIS:CSI16:1,2011-03-01T00:00:00Z,29.4012,-89.0355,10.0,8.69,209.0,,'11111222,11111222,99999999' 
WAVCIS,ioos:station:WAVCIS:CSI16:1,2011-03-01T01:00:00Z,29.4012,-89.0355,10.0,6.364,223.0,,'11111222,11111222,99999999' 
WAVCIS,ioos:station:WAVCIS:CSI16:1,2011-03-01T02:00:00Z,29.4012,-89.0355,10.0,7.33,228.0,,'11111222,11111222,99999999' 
WAVCIS,ioos:station:WAVCIS:CSI16:1,2011-03-01T03:00:00Z,29.4012,-89.0355,10.0,7.93,223.0,,'11111222,11111222,99999999' 
WAVCIS,ioos:station:WAVCIS:CSI16:1,2011-03-01T04:00:00Z,29.4012,-89.0355,10.0,7.13,246.0,,'11111222,11111222,99999999' 
WAVCIS,ioos:station:WAVCIS:CSI16:1,2011-03-01T05:00:00Z,29.4012,-89.0355,10.0,9.61,359.0,,'11111222,11111222,99999999' 
WAVCIS,ioos:station:WAVCIS:CSI16:1,2011-03-01T06:00:00Z,29.4012,-89.0355,10.0,9.03,9.0,,'11111222,11111222,99999999' 
WAVCIS,ioos:station:WAVCIS:CSI16:1,2011-03-01T07:00:00Z,29.4012,-89.0355,10.0,9.74,4.0,,'11111222,11111222,99999999' 
WAVCIS,ioos:station:WAVCIS:CSI16:1,2011-03-01T08:00:00Z,29.4012,-89.0355,10.0,7.79,15.0,,'11111222,11111222,99999999' 
WAVCIS,ioos:station:WAVCIS:CSI16:1,2011-03-01T09:00:00Z,29.4012,-89.0355,10.0,8.45,12.0,,'11111222,11111222,99999999' 
WAVCIS,ioos:station:WAVCIS:CSI16:1,2011-03-01T10:00:00Z,29.4012,-89.0355,10.0,11.18,8.0,,'11111222,11111222,99999999' 
WAVCIS,ioos:station:WAVCIS:CSI16:1,2011-03-01T11:00:00Z,29.4012,-89.0355,10.0,11.07,11.0,,'11111222,11111222,99999999' 
WAVCIS,ioos:station:WAVCIS:CSI16:1,2011-03-01T12:00:00Z,29.4012,-89.0355,10.0,10.73,12.0,,'11111222,11111222,99999999' 
WAVCIS,ioos:station:WAVCIS:CSI16:1,2011-03-01T13:00:00Z,29.4012,-89.0355,10.0,10.08,14.0,,'11111222,11111222,99999999' 
WAVCIS,ioos:station:WAVCIS:CSI16:1,2011-03-01T14:00:00Z,29.4012,-89.0355,10.0,9.53,14.0,,'11111222,11111222,99999999' 
WAVCIS,ioos:station:WAVCIS:CSI16:1,2011-03-01T15:00:00Z,29.4012,-89.0355,10.0,9.65,13.0,,'11111222,11111222,99999999' 
WAVCIS,ioos:station:WAVCIS:CSI16:1,2011-03-01T16:00:00Z,29.4012,-89.0355,10.0,9.36,13.0,,'11111222,11111222,99999999' 
WAVCIS,ioos:station:WAVCIS:CSI16:1,2011-03-01T17:00:00Z,29.4012,-89.0355,10.0,7.17,13.0,,'11111222,11111222,99999999' 
WAVCIS,ioos:station:WAVCIS:CSI16:1,2011-03-01T18:00:00Z,29.4012,-89.0355,10.0,6.046,12.0,,'11111222,11111222,99999999' 
WAVCIS,ioos:station:WAVCIS:CSI16:1,2011-03-01T19:00:00Z,29.4012,-89.0355,10.0,4.218,15.0,,'11111222,11111222,99999999' 
WAVCIS,ioos:station:WAVCIS:CSI16:1,2011-03-01T20:00:00Z,29.4012,-89.0355,10.0,3.623,13.0,,'11111222,11111222,99999999' 
WAVCIS,ioos:station:WAVCIS:CSI16:1,2011-03-01T21:00:00Z,29.4012,-89.0355,10.0,2.664,22.0,,'11111222,11111222,99999999' 
WAVCIS,ioos:station:WAVCIS:CSI16:1,2011-03-01T22:00:00Z,29.4012,-89.0355,10.0,1.969,39.0,,'11111222,11111222,99999999' 
WAVCIS,ioos:station:WAVCIS:CSI16:1,2011-03-01T23:00:00Z,29.4012,-89.0355,10.0,3.501,51.0,,'11111222,11111222,99999999' 
WAVCIS,ioos:station:WAVCIS:CSI16:1,2011-03-02T00:00:00Z,29.4012,-89.0355,10.0,3.078,50.0,,'11111222,11111222,99999999' 
WAVCIS,ioos:station:WAVCIS:CSI16:1,2011-03-02T01:00:00Z,29.4012,-89.0355,10.0,2.661,59.0,,'11111222,11111222,99999999' 
WAVCIS,ioos:station:WAVCIS:CSI16:1,2011-03-02T02:00:00Z,29.4012,-89.0355,10.0,2.167,56.0,,'11111222,11111222,99999999' 
WAVCIS,ioos:station:WAVCIS:CSI16:1,2011-03-02T03:00:00Z,29.4012,-89.0355,10.0,1.66,44.0,,'11111222,11111222,99999999' 
WAVCIS,ioos:station:WAVCIS:CSI16:1,2011-03-02T04:00:00Z,29.4012,-89.0355,10.0,1.194,45.0,,'11111222,11111222,99999999' 
WAVCIS,ioos:station:WAVCIS:CSI16:1,2011-03-02T05:00:00Z,29.4012,-89.0355,10.0,1.274,55.0,,'11111222,11111222,99999999' 
WAVCIS,ioos:station:WAVCIS:CSI16:1,2011-03-02T06:00:00Z,29.4012,-89.0355,10.0,1.068,50.0,,'11111222,11111222,99999999' 
WAVCIS,ioos:station:WAVCIS:CSI16:1,2011-03-02T07:00:00Z,29.4012,-89.0355,10.0,2.618,7.0,,'11111222,11111222,99999999' 
WAVCIS,ioos:station:WAVCIS:CSI16:1,2011-03-02T08:00:00Z,29.4012,-89.0355,10.0,3.947,12.0,,'11111222,11111222,99999999' 
WAVCIS,ioos:station:WAVCIS:CSI16:1,2011-03-02T09:00:00Z,29.4012,-89.0355,10.0,2.416,42.0,,'11111222,11111222,99999999' 
WAVCIS,ioos:station:WAVCIS:CSI16:1,2011-03-02T10:00:00Z,29.4012,-89.0355,10.0,2.513,42.0,,'11111222,11111222,99999999' 
WAVCIS,ioos:station:WAVCIS:CSI16:1,2011-03-02T11:00:00Z,29.4012,-89.0355,10.0,4.747,53.0,,'11111222,11111222,99999999' 
WAVCIS,ioos:station:WAVCIS:CSI16:1,2011-03-02T12:00:00Z,29.4012,-89.0355,10.0,4.702,61.0,,'11111222,11111222,99999999' 
WAVCIS,ioos:station:WAVCIS:CSI16:1,2011-03-02T13:00:00Z,29.4012,-89.0355,10.0,4.142,68.0,,'11111222,11111222,99999999' 
WAVCIS,ioos:station:WAVCIS:CSI16:1,2011-03-02T14:00:00Z,29.4012,-89.0355,10.0,4.722,72.0,,'11111222,11111222,99999999' 
WAVCIS,ioos:station:WAVCIS:CSI16:1,2011-03-02T15:00:00Z,29.4012,-89.0355,10.0,5.931,96.0,,'11111222,11111222,99999999' 
WAVCIS,ioos:station:WAVCIS:CSI16:1,2011-03-02T16:00:00Z,29.4012,-89.0355,10.0,5.625,87.0,,'11111222,11111222,99999999' 
WAVCIS,ioos:station:WAVCIS:CSI16:1,2011-03-02T17:00:00Z,29.4012,-89.0355,10.0,6.66,86.0,,'11111222,11111222,99999999' 
WAVCIS,ioos:station:WAVCIS:CSI16:1,2011-03-02T18:00:00Z,29.4012,-89.0355,10.0,6.926,99.0,,'11111222,11111222,99999999' 
WAVCIS,ioos:station:WAVCIS:CSI16:1,2011-03-02T19:00:00Z,29.4012,-89.0355,10.0,7.22,92.0,,'11111222,11111222,99999999' 
WAVCIS,ioos:station:WAVCIS:CSI16:1,2011-03-02T20:00:00Z,29.4012,-89.0355,10.0,7.65,98.0,,'11111222,11111222,99999999' 
WAVCIS,ioos:station:WAVCIS:CSI16:1,2011-03-02T21:00:00Z,29.4012,-89.0355,10.0,7.57,91.0,,'11111222,11111222,99999999' 
WAVCIS,ioos:station:WAVCIS:CSI16:1,2011-03-02T22:00:00Z,29.4012,-89.0355,10.0,6.765,92.0,,'11111222,11111222,99999999' 
WAVCIS,ioos:station:WAVCIS:CSI16:1,2011-03-02T23:00:00Z,29.4012,-89.0355,10.0,5.138,62.0,,'11111222,11111222,99999999' 
WAVCIS,ioos:station:WAVCIS:CSI16:1,2011-03-03T00:00:00Z,29.4012,-89.0355,10.0,5.38,60.0,,'11111222,11111222,99999999' 
WAVCIS,ioos:station:WAVCIS:CSI16:1,2011-03-03T01:00:00Z,29.4012,-89.0355,10.0,4.486,68.0,,'11111222,11111222,99999999' 
WAVCIS,ioos:station:WAVCIS:CSI16:1,2011-03-03T02:00:00Z,29.4012,-89.0355,10.0,4.839,70.0,,'11111222,11111222,99999999' 
WAVCIS,ioos:station:WAVCIS:CSI16:1,2011-03-03T03:00:00Z,29.4012,-89.0355,10.0,4.206,66.0,,'11111222,11111222,99999999' 
WAVCIS,ioos:station:WAVCIS:CSI16:1,2011-03-03T04:00:00Z,29.4012,-89.0355,10.0,5.72,77.0,,'11111222,11111222,99999999' 
WAVCIS,ioos:station:WAVCIS:CSI16:1,2011-03-03T05:00:00Z,29.4012,-89.0355,10.0,7.48,82.0,,'11111222,11111222,99999999' 
WAVCIS,ioos:station:WAVCIS:CSI16:1,2011-03-03T06:00:00Z,29.4012,-89.0355,10.0,5.608,102.0,,'11111222,11111222,99999999' 
WAVCIS,ioos:station:WAVCIS:CSI16:1,2011-03-03T07:00:00Z,29.4012,-89.0355,10.0,6.003,106.0,,'11111222,11111222,99999999' 
WAVCIS,ioos:station:WAVCIS:CSI16:1,2011-03-03T08:00:00Z,29.4012,-89.0355,10.0,6.15,104.0,,'11111222,11111222,99999999' 
WAVCIS,ioos:station:WAVCIS:CSI16:1,2011-03-03T09:00:00Z,29.4012,-89.0355,10.0,6.208,96.0,,'11111222,11111222,99999999' 
WAVCIS,ioos:station:WAVCIS:CSI16:1,2011-03-03T10:00:00Z,29.4012,-89.0355,10.0,5.387,100.0,,'11111222,11111222,99999999' 
WAVCIS,ioos:station:WAVCIS:CSI16:1,2011-03-03T11:00:00Z,29.4012,-89.0355,10.0,5.548,76.0,,'11111222,11111222,99999999' 
WAVCIS,ioos:station:WAVCIS:CSI16:1,2011-03-03T12:00:00Z,29.4012,-89.0355,10.0,5.759,59.0,,'11111222,11111222,99999999' 
WAVCIS,ioos:station:WAVCIS:CSI16:1,2011-03-03T13:00:00Z,29.4012,-89.0355,10.0,4.231,64.0,,'11111222,11111222,99999999' 
WAVCIS,ioos:station:WAVCIS:CSI16:1,2011-03-03T14:00:00Z,29.4012,-89.0355,10.0,5.823,82.0,,'11111222,11111222,99999999' 
WAVCIS,ioos:station:WAVCIS:CSI16:1,2011-03-03T15:00:00Z,29.4012,-89.0355,10.0,6.11,80.0,,'11111222,11111222,99999999' 
WAVCIS,ioos:station:WAVCIS:CSI16:1,2011-03-03T16:00:00Z,29.4012,-89.0355,10.0,7.23,102.0,,'11111222,11111222,99999999' 
WAVCIS,ioos:station:WAVCIS:CSI16:1,2011-03-03T17:00:00Z,29.4012,-89.0355,10.0,8.77,105.0,,'11111222,11111222,99999999' 
WAVCIS,ioos:station:WAVCIS:CSI16:1,2011-03-03T18:00:00Z,29.4012,-89.0355,10.0,9.59,103.0,,'11111222,11111222,99999999' 
WAVCIS,ioos:station:WAVCIS:CSI16:1,2011-03-03T19:00:00Z,29.4012,-89.0355,10.0,9.85,101.0,,'11111222,11111222,99999999' 
WAVCIS,ioos:station:WAVCIS:CSI16:1,2011-03-03T20:00:00Z,29.4012,-89.0355,10.0,10.04,101.0,,'11111222,11111222,99999999' 
WAVCIS,ioos:station:WAVCIS:CSI16:1,2011-03-03T21:00:00Z,29.4012,-89.0355,10.0,10.56,104.0,,'11111222,11111222,99999999' 
WAVCIS,ioos:station:WAVCIS:CSI16:1,2011-03-03T22:00:00Z,29.4012,-89.0355,10.0,10.96,104.0,,'11111222,11111222,99999999' 
WAVCIS,ioos:station:WAVCIS:CSI16:1,2011-03-03T23:00:00Z,29.4012,-89.0355,10.0,10.15,103.0,,'11111222,11111222,99999999' 
WAVCIS,ioos:station:WAVCIS:CSI16:1,2011-03-04T00:00:00Z,29.4012,-89.0355,10.0,10.09,107.0,,'11111222,11111222,99999999' 
WAVCIS,ioos:station:WAVCIS:CSI16:1,2011-03-04T01:00:00Z,29.4012,-89.0355,10.0,10.57,105.0,,'11111222,11111222,99999999' 
WAVCIS,ioos:station:WAVCIS:CSI16:1,2011-03-04T02:00:00Z,29.4012,-89.0355,10.0,10.73,106.0,,'11111222,11111222,99999999' 
WAVCIS,ioos:station:WAVCIS:CSI16:1,2011-03-04T03:00:00Z,29.4012,-89.0355,10.0,10.27,108.0,,'11111222,11111222,99999999' 
WAVCIS,ioos:station:WAVCIS:CSI16:1,2011-03-04T04:00:00Z,29.4012,-89.0355,10.0,10.04,106.0,,'11111222,11111222,99999999' 
WAVCIS,ioos:station:WAVCIS:CSI16:1,2011-03-04T05:00:00Z,29.4012,-89.0355,10.0,9.91,108.0,,'11111222,11111222,99999999' 
WAVCIS,ioos:station:WAVCIS:CSI16:1,2011-03-04T06:00:00Z,29.4012,-89.0355,10.0,9.43,107.0,,'11111222,11111222,99999999' 
WAVCIS,ioos:station:WAVCIS:CSI16:1,2011-03-04T07:00:00Z,29.4012,-89.0355,10.0,9.22,106.0,,'11111222,11111222,99999999' 
WAVCIS,ioos:station:WAVCIS:CSI16:1,2011-03-04T08:00:00Z,29.4012,-89.0355,10.0,9.47,106.0,,'11111222,11111222,99999999' 
WAVCIS,ioos:station:WAVCIS:CSI16:1,2011-03-04T09:00:00Z,29.4012,-89.0355,10.0,9.78,104.0,,'11111222,11111222,99999999' 
WAVCIS,ioos:station:WAVCIS:CSI16:1,2011-03-04T10:00:00Z,29.4012,-89.0355,10.0,10.86,108.0,,'11111222,11111222,99999999' 
WAVCIS,ioos:station:WAVCIS:CSI16:1,2011-03-04T11:00:00Z,29.4012,-89.0355,10.0,11.13,110.0,,'11111222,11111222,99999999' 
WAVCIS,ioos:station:WAVCIS:CSI16:1,2011-03-04T12:00:00Z,29.4012,-89.0355,10.0,12.15,110.0,,'11111222,11111222,99999999' 
WAVCIS,ioos:station:WAVCIS:CSI16:1,2011-03-04T13:00:00Z,29.4012,-89.0355,10.0,12.1,115.0,,'11111222,11111222,99999999' 
WAVCIS,ioos:station:WAVCIS:CSI16:1,2011-03-04T14:00:00Z,29.4012,-89.0355,10.0,12.27,111.0,,'11111222,11111222,99999999' 
WAVCIS,ioos:station:WAVCIS:CSI16:1,2011-03-04T15:00:00Z,29.4012,-89.0355,10.0,12.7,117.0,,'11111222,11111222,99999999' 
WAVCIS,ioos:station:WAVCIS:CSI16:1,2011-03-04T16:00:00Z,29.4012,-89.0355,10.0,13.68,115.0,,'11111222,11111222,99999999' 
WAVCIS,ioos:station:WAVCIS:CSI16:1,2011-03-04T17:00:00Z,29.4012,-89.0355,10.0,13.13,116.0,,'11111222,11111222,99999999' 
WAVCIS,ioos:station:WAVCIS:CSI16:1,2011-03-04T18:00:00Z,29.4012,-89.0355,10.0,13.09,116.0,,'11111222,11111222,99999999' 
WAVCIS,ioos:station:WAVCIS:CSI16:1,2011-03-04T19:00:00Z,29.4012,-89.0355,10.0,12.5,113.0,,'11111222,11111222,99999999' 
WAVCIS,ioos:station:WAVCIS:CSI16:1,2011-03-04T20:00:00Z,29.4012,-89.0355,10.0,12.34,113.0,,'11111222,11111222,99999999' 
WAVCIS,ioos:station:WAVCIS:CSI16:1,2011-03-04T21:00:00Z,29.4012,-89.0355,10.0,11.08,114.0,,'11111222,11111222,99999999' 
WAVCIS,ioos:station:WAVCIS:CSI16:1,2011-03-04T22:00:00Z,29.4012,-89.0355,10.0,13.21,117.0,,'11111222,11111222,99999999' 
WAVCIS,ioos:station:WAVCIS:CSI16:1,2011-03-04T23:00:00Z,29.4012,-89.0355,10.0,13.59,116.0,,'11111222,11111222,99999999' 
WAVCIS,ioos:station:WAVCIS:CSI16:1,2011-03-05T00:00:00Z,29.4012,-89.0355,10.0,13.42,116.0,,'11111222,11111222,99999999' 
WAVCIS,ioos:station:WAVCIS:CSI16:1,2011-03-05T01:00:00Z,29.4012,-89.0355,10.0,13.27,119.0,,'11111222,11111222,99999999' 
WAVCIS,ioos:station:WAVCIS:CSI16:1,2011-03-05T02:00:00Z,29.4012,-89.0355,10.0,11.94,113.0,,'11111222,11111222,99999999' 
WAVCIS,ioos:station:WAVCIS:CSI16:1,2011-03-05T03:00:00Z,29.4012,-89.0355,10.0,10.04,120.0,,'11111222,11111222,99999999' 
WAVCIS,ioos:station:WAVCIS:CSI16:1,2011-03-05T04:00:00Z,29.4012,-89.0355,10.0,8.4,128.0,,'11111222,11111222,99999999' 
WAVCIS,ioos:station:WAVCIS:CSI16:1,2011-03-05T05:00:00Z,29.4012,-89.0355,10.0,12.65,124.0,,'11111222,11111222,99999999' 
WAVCIS,ioos:station:WAVCIS:CSI16:1,2011-03-05T06:00:00Z,29.4012,-89.0355,10.0,10.91,119.0,,'11111222,11111222,99999999' 
WAVCIS,ioos:station:WAVCIS:CSI16:1,2011-03-05T07:00:00Z,29.4012,-89.0355,10.0,5.653,137.0,,'11111222,11111222,99999999' 
WAVCIS,ioos:station:WAVCIS:CSI16:1,2011-03-05T08:00:00Z,29.4012,-89.0355,10.0,4.053,145.0,,'11111222,11111222,99999999' 
WAVCIS,ioos:station:WAVCIS:CSI16:1,2011-03-05T09:00:00Z,29.4012,-89.0355,10.0,3.626,133.0,,'11111222,11111222,99999999' 
WAVCIS,ioos:station:WAVCIS:CSI16:1,2011-03-05T10:00:00Z,29.4012,-89.0355,10.0,9.92,165.0,,'11111222,11111222,99999999' 
WAVCIS,ioos:station:WAVCIS:CSI16:1,2011-03-05T11:00:00Z,29.4012,-89.0355,10.0,8.37,154.0,,'11111222,11111222,99999999' 
WAVCIS,ioos:station:WAVCIS:CSI16:1,2011-03-05T12:00:00Z,29.4012,-89.0355,10.0,6.786,152.0,,'11111222,11111222,99999999' 
WAVCIS,ioos:station:WAVCIS:CSI16:1,2011-03-05T13:00:00Z,29.4012,-89.0355,10.0,7.12,144.0,,'11111222,11111222,99999999' 
WAVCIS,ioos:station:WAVCIS:CSI16:1,2011-03-05T14:00:00Z,29.4012,-89.0355,10.0,8.52,150.0,,'11111222,11111222,99999999' 
WAVCIS,ioos:station:WAVCIS:CSI16:1,2011-03-05T15:00:00Z,29.4012,-89.0355,10.0,7.53,140.0,,'11111222,11111222,99999999' 
WAVCIS,ioos:station:WAVCIS:CSI16:1,2011-03-05T16:00:00Z,29.4012,-89.0355,10.0,9.24,146.0,,'11111222,11111222,99999999' 
WAVCIS,ioos:station:WAVCIS:CSI16:1,2011-03-05T17:00:00Z,29.4012,-89.0355,10.0,7.52,148.0,,'11111222,11111222,99999999' 
WAVCIS,ioos:station:WAVCIS:CSI16:1,2011-03-05T18:00:00Z,29.4012,-89.0355,10.0,7.9,145.0,,'11111222,11111222,99999999' 
WAVCIS,ioos:station:WAVCIS:CSI16:1,2011-03-05T19:00:00Z,29.4012,-89.0355,10.0,6.88,145.0,,'11111222,11111222,99999999' 
WAVCIS,ioos:station:WAVCIS:CSI16:1,2011-03-05T20:00:00Z,29.4012,-89.0355,10.0,9.28,147.0,,'11111222,11111222,99999999' 
WAVCIS,ioos:station:WAVCIS:CSI16:1,2011-03-05T21:00:00Z,29.4012,-89.0355,10.0,11.33,207.0,,'11111222,11111222,99999999' 
WAVCIS,ioos:station:WAVCIS:CSI16:1,2011-03-05T22:00:00Z,29.4012,-89.0355,10.0,10.63,253.0,,'11111222,11111222,99999999' 
WAVCIS,ioos:station:WAVCIS:CSI16:1,2011-03-05T23:00:00Z,29.4012,-89.0355,10.0,5.955,267.0,,'11111222,11111222,99999999' 
WAVCIS,ioos:station:WAVCIS:CSI16:1,2011-03-06T00:00:00Z,29.4012,-89.0355,10.0,5.938,182.0,,'11111222,11111222,99999999' 
WAVCIS,ioos:station:WAVCIS:CSI16:1,2011-03-06T01:00:00Z,29.4012,-89.0355,10.0,7.78,144.0,,'11111222,11111222,99999999' 
WAVCIS,ioos:station:WAVCIS:CSI16:1,2011-03-06T02:00:00Z,29.4012,-89.0355,10.0,5.653,244.0,,'11111222,11111222,99999999' 
WAVCIS,ioos:station:WAVCIS:CSI16:1,2011-03-06T03:00:00Z,29.4012,-89.0355,10.0,7.21,238.0,,'11111222,11111222,99999999' 
WAVCIS,ioos:station:WAVCIS:CSI16:1,2011-03-06T04:00:00Z,29.4012,-89.0355,10.0,7.13,329.0,,'11111222,11111222,99999999' 
WAVCIS,ioos:station:WAVCIS:CSI16:1,2011-03-06T05:00:00Z,29.4012,-89.0355,10.0,14.51,331.0,,'11111222,11111222,99999999' 
WAVCIS,ioos:station:WAVCIS:CSI16:1,2011-03-06T06:00:00Z,29.4012,-89.0355,10.0,14.11,341.0,,'11111222,11111222,99999999' 
WAVCIS,ioos:station:WAVCIS:CSI16:1,2011-03-06T07:00:00Z,29.4012,-89.0355,10.0,14.65,327.0,,'11111222,11111222,99999999' 
WAVCIS,ioos:station:WAVCIS:CSI16:1,2011-03-06T08:00:00Z,29.4012,-89.0355,10.0,15.17,332.0,,'11111222,11111222,99999999' 
WAVCIS,ioos:station:WAVCIS:CSI16:1,2011-03-06T09:00:00Z,29.4012,-89.0355,10.0,11.89,337.0,,'11111222,11111222,99999999' 
WAVCIS,ioos:station:WAVCIS:CSI16:1,2011-03-06T10:00:00Z,29.4012,-89.0355,10.0,11.64,338.0,,'11111222,11111222,99999999' 
WAVCIS,ioos:station:WAVCIS:CSI16:1,2011-03-06T11:00:00Z,29.4012,-89.0355,10.0,12.84,332.0,,'11111222,11111222,99999999' 
WAVCIS,ioos:station:WAVCIS:CSI16:1,2011-03-06T12:00:00Z,29.4012,-89.0355,10.0,13.78,333.0,,'11111222,11111222,99999999' 
WAVCIS,ioos:station:WAVCIS:CSI16:1,2011-03-06T13:00:00Z,29.4012,-89.0355,10.0,13.46,343.0,,'11111222,11111222,99999999' 
WAVCIS,ioos:station:WAVCIS:CSI16:1,2011-03-06T14:00:00Z,29.4012,-89.0355,10.0,10.71,355.0,,'11111222,11111222,99999999' 
WAVCIS,ioos:station:WAVCIS:CSI16:1,2011-03-06T15:00:00Z,29.4012,-89.0355,10.0,10.32,355.0,,'11111222,11111222,99999999' 
WAVCIS,ioos:station:WAVCIS:CSI16:1,2011-03-06T16:00:00Z,29.4012,-89.0355,10.0,9.77,357.0,,'11111222,11111222,99999999' 
WAVCIS,ioos:station:WAVCIS:CSI16:1,2011-03-06T17:00:00Z,29.4012,-89.0355,10.0,9.21,351.0,,'11111222,11111222,99999999' 
WAVCIS,ioos:station:WAVCIS:CSI16:1,2011-03-06T18:00:00Z,29.4012,-89.0355,10.0,9.04,355.0,,'11111222,11111222,99999999' 
WAVCIS,ioos:station:WAVCIS:CSI16:1,2011-03-06T19:00:00Z,29.4012,-89.0355,10.0,7.59,358.0,,'11111222,11111222,99999999' 
WAVCIS,ioos:station:WAVCIS:CSI16:1,2011-03-06T20:00:00Z,29.4012,-89.0355,10.0,6.807,341.0,,'11111222,11111222,99999999' 
WAVCIS,ioos:station:WAVCIS:CSI16:1,2011-03-06T21:00:00Z,29.4012,-89.0355,10.0,6.499,336.0,,'11111222,11111222,99999999' 
WAVCIS,ioos:station:WAVCIS:CSI16:1,2011-03-06T22:00:00Z,29.4012,-89.0355,10.0,6.217,345.0,,'11111222,11111222,99999999' 
WAVCIS,ioos:station:WAVCIS:CSI16:1,2011-03-06T23:00:00Z,29.4012,-89.0355,10.0,5.355,336.0,,'11111222,11111222,99999999' 
WAVCIS,ioos:station:WAVCIS:CSI16:1,2011-03-07T00:00:00Z,29.4012,-89.0355,10.0,5.421,346.0,,'11111222,11111222,99999999' 
WAVCIS,ioos:station:WAVCIS:CSI16:1,2011-03-07T01:00:00Z,29.4012,-89.0355,10.0,6.021,344.0,,'11111222,11111222,99999999' 
WAVCIS,ioos:station:WAVCIS:CSI16:1,2011-03-07T02:00:00Z,29.4012,-89.0355,10.0,5.44,351.0,,'11111222,11111222,99999999' 
WAVCIS,ioos:station:WAVCIS:CSI16:1,2011-03-07T03:00:00Z,29.4012,-89.0355,10.0,5.1,358.0,,'11111222,11111222,99999999' 
WAVCIS,ioos:station:WAVCIS:CSI16:1,2011-03-07T04:00:00Z,29.4012,-89.0355,10.0,3.218,24.0,,'11111222,11111222,99999999' 
WAVCIS,ioos:station:WAVCIS:CSI16:1,2011-03-07T05:00:00Z,29.4012,-89.0355,10.0,3.736,15.0,,'11111222,11111222,99999999' 
WAVCIS,ioos:station:WAVCIS:CSI16:1,2011-03-07T06:00:00Z,29.4012,-89.0355,10.0,3.794,46.0,,'11111222,11111222,99999999' 
WAVCIS,ioos:station:WAVCIS:CSI16:1,2011-03-07T07:00:00Z,29.4012,-89.0355,10.0,4.108,14.0,,'11111222,11111222,99999999' 
WAVCIS,ioos:station:WAVCIS:CSI16:1,2011-03-07T08:00:00Z,29.4012,-89.0355,10.0,3.276,59.0,,'11111222,11111222,99999999' 
WAVCIS,ioos:station:WAVCIS:CSI16:1,2011-03-07T09:00:00Z,29.4012,-89.0355,10.0,2.268,50.0,,'11111222,11111222,99999999' 
WAVCIS,ioos:station:WAVCIS:CSI16:1,2011-03-07T10:00:00Z,29.4012,-89.0355,10.0,3.774,50.0,,'11111222,11111222,99999999' 
WAVCIS,ioos:station:WAVCIS:CSI16:1,2011-03-07T11:00:00Z,29.4012,-89.0355,10.0,3.057,48.0,,'11111222,11111222,99999999' 
WAVCIS,ioos:station:WAVCIS:CSI16:1,2011-03-07T12:00:00Z,29.4012,-89.0355,10.0,2.791,58.0,,'11111222,11111222,99999999' 
WAVCIS,ioos:station:WAVCIS:CSI16:1,2011-03-07T13:00:00Z,29.4012,-89.0355,10.0,2.888,78.0,,'11111222,11111222,99999999' 
WAVCIS,ioos:station:WAVCIS:CSI16:1,2011-03-07T14:00:00Z,29.4012,-89.0355,10.0,1.983,51.0,,'11111222,11111222,99999999' 
WAVCIS,ioos:station:WAVCIS:CSI16:1,2011-03-07T15:00:00Z,29.4012,-89.0355,10.0,2.469,56.0,,'11111222,11111222,99999999' 
WAVCIS,ioos:station:WAVCIS:CSI16:1,2011-03-07T16:00:00Z,29.4012,-89.0355,10.0,4.028,100.0,,'11111222,11111222,99999999' 
WAVCIS,ioos:station:WAVCIS:CSI16:1,2011-03-07T17:00:00Z,29.4012,-89.0355,10.0,4.407,84.0,,'11111222,11111222,99999999' 
WAVCIS,ioos:station:WAVCIS:CSI16:1,2011-03-07T18:00:00Z,29.4012,-89.0355,10.0,3.486,75.0,,'11111222,11111222,99999999' 
WAVCIS,ioos:station:WAVCIS:CSI16:1,2011-03-07T19:00:00Z,29.4012,-89.0355,10.0,5.043,107.0,,'11111222,11111222,99999999' 
WAVCIS,ioos:station:WAVCIS:CSI16:1,2011-03-07T20:00:00Z,29.4012,-89.0355,10.0,4.07,81.0,,'11111222,11111222,99999999' 
WAVCIS,ioos:station:WAVCIS:CSI16:1,2011-03-07T21:00:00Z,29.4012,-89.0355,10.0,5.743,92.0,,'11111222,11111222,99999999' 
WAVCIS,ioos:station:WAVCIS:CSI16:1,2011-03-07T22:00:00Z,29.4012,-89.0355,10.0,6.543,84.0,,'11111222,11111222,99999999' 
WAVCIS,ioos:station:WAVCIS:CSI16:1,2011-03-07T23:00:00Z,29.4012,-89.0355,10.0,6.726,100.0,,'11111222,11111222,99999999' 
WAVCIS,ioos:station:WAVCIS:CSI16:1,2011-03-08T00:00:00Z,29.4012,-89.0355,10.0,7.51,101.0,,'11111222,11111222,99999999' 
WAVCIS,ioos:station:WAVCIS:CSI16:1,2011-03-08T01:00:00Z,29.4012,-89.0355,10.0,7.6,91.0,,'11111222,11111222,99999999' 
WAVCIS,ioos:station:WAVCIS:CSI16:1,2011-03-08T02:00:00Z,29.4012,-89.0355,10.0,8.17,97.0,,'11111222,11111222,99999999' 
WAVCIS,ioos:station:WAVCIS:CSI16:1,2011-03-08T03:00:00Z,29.4012,-89.0355,10.0,9.17,110.0,,'11111222,11111222,99999999' 
WAVCIS,ioos:station:WAVCIS:CSI16:1,2011-03-08T04:00:00Z,29.4012,-89.0355,10.0,9.78,112.0,,'11111222,11111222,99999999' 
WAVCIS,ioos:station:WAVCIS:CSI16:1,2011-03-08T05:00:00Z,29.4012,-89.0355,10.0,10.05,114.0,,'11111222,11111222,99999999' 
WAVCIS,ioos:station:WAVCIS:CSI16:1,2011-03-08T06:00:00Z,29.4012,-89.0355,10.0,9.97,115.0,,'11111222,11111222,99999999' 
WAVCIS,ioos:station:WAVCIS:CSI16:1,2011-03-08T07:00:00Z,29.4012,-89.0355,10.0,10.56,119.0,,'11111222,11111222,99999999' 
WAVCIS,ioos:station:WAVCIS:CSI16:1,2011-03-08T08:00:00Z,29.4012,-89.0355,10.0,10.21,121.0,,'11111222,11111222,99999999' 
WAVCIS,ioos:station:WAVCIS:CSI16:1,2011-03-08T09:00:00Z,29.4012,-89.0355,10.0,9.86,118.0,,'11111222,11111222,99999999' 
WAVCIS,ioos:station:WAVCIS:CSI16:1,2011-03-08T10:00:00Z,29.4012,-89.0355,10.0,11.58,122.0,,'11111222,11111222,99999999' 
WAVCIS,ioos:station:WAVCIS:CSI16:1,2011-03-08T11:00:00Z,29.4012,-89.0355,10.0,12.01,120.0,,'11111222,11111222,99999999' 
WAVCIS,ioos:station:WAVCIS:CSI16:1,2011-03-08T12:00:00Z,29.4012,-89.0355,10.0,11.1,119.0,,'11111222,11111222,99999999' 
WAVCIS,ioos:station:WAVCIS:CSI16:1,2011-03-08T13:00:00Z,29.4012,-89.0355,10.0,10.5,116.0,,'11111222,11111222,99999999' 
WAVCIS,ioos:station:WAVCIS:CSI16:1,2011-03-08T14:00:00Z,29.4012,-89.0355,10.0,9.86,119.0,,'11111222,11111222,99999999' 
WAVCIS,ioos:station:WAVCIS:CSI16:1,2011-03-08T15:00:00Z,29.4012,-89.0355,10.0,9.89,113.0,,'11111222,11111222,99999999' 
WAVCIS,ioos:station:WAVCIS:CSI16:1,2011-03-08T16:00:00Z,29.4012,-89.0355,10.0,9.97,113.0,,'11111222,11111222,99999999' 
WAVCIS,ioos:station:WAVCIS:CSI16:1,2011-03-08T17:00:00Z,29.4012,-89.0355,10.0,9.48,117.0,,'11111222,11111222,99999999' 
WAVCIS,ioos:station:WAVCIS:CSI16:1,2011-03-08T18:00:00Z,29.4012,-89.0355,10.0,10.66,121.0,,'11111222,11111222,99999999' 
WAVCIS,ioos:station:WAVCIS:CSI16:1,2011-03-08T19:00:00Z,29.4012,-89.0355,10.0,11.45,122.0,,'11111222,11111222,99999999' 
WAVCIS,ioos:station:WAVCIS:CSI16:1,2011-03-08T20:00:00Z,29.4012,-89.0355,10.0,11.33,125.0,,'11111222,11111222,99999999' 
WAVCIS,ioos:station:WAVCIS:CSI16:1,2011-03-08T21:00:00Z,29.4012,-89.0355,10.0,11.96,125.0,,'11111222,11111222,99999999' 
WAVCIS,ioos:station:WAVCIS:CSI16:1,2011-03-08T22:00:00Z,29.4012,-89.0355,10.0,11.19,127.0,,'11111222,11111222,99999999' 
WAVCIS,ioos:station:WAVCIS:CSI16:1,2011-03-08T23:00:00Z,29.4012,-89.0355,10.0,10.92,122.0,,'11111222,11111222,99999999' 
WAVCIS,ioos:station:WAVCIS:CSI16:1,2011-03-09T00:00:00Z,29.4012,-89.0355,10.0,10.85,124.0,,'11111222,11111222,99999999' 
WAVCIS,ioos:station:WAVCIS:CSI16:1,2011-03-09T01:00:00Z,29.4012,-89.0355,10.0,10.37,120.0,,'11111222,11111222,99999999' 
WAVCIS,ioos:station:WAVCIS:CSI16:1,2011-03-09T02:00:00Z,29.4012,-89.0355,10.0,11.28,124.0,,'11111222,11111222,99999999' 
WAVCIS,ioos:station:WAVCIS:CSI16:1,2011-03-09T03:00:00Z,29.4012,-89.0355,10.0,12.13,128.0,,'11111222,11111222,99999999' 
WAVCIS,ioos:station:WAVCIS:CSI16:1,2011-03-09T04:00:00Z,29.4012,-89.0355,10.0,10.86,133.0,,'11111222,11111222,99999999' 
WAVCIS,ioos:station:WAVCIS:CSI16:1,2011-03-09T05:00:00Z,29.4012,-89.0355,10.0,10.05,131.0,,'11111222,11111222,99999999' 